Year,Month,Day,Hour,Minute,Value (Times are PST for temperature in C)
2016,06,05,00,00,20.50
2016,06,05,00,01,20.40
2016,06,05,00,02,20.40
2016,06,05,00,03,20.30
2016,06,05,00,04,20.30
2016,06,05,00,05,20.20
2016,06,05,00,06,20.20
2016,06,05,00,07,20.10
2016,06,05,00,08,20.10
2016,06,05,00,09,20.00
2016,06,05,00,10,20.00
2016,06,05,00,11,19.90
2016,06,05,00,12,19.90
2016,06,05,00,13,19.80
2016,06,05,00,14,19.80
2016,06,05,00,15,19.80
2016,06,05,00,16,19.70
2016,06,05,00,17,19.70
2016,06,05,00,18,19.70
2016,06,05,00,19,19.60
2016,06,05,00,20,19.60
2016,06,05,00,21,19.60
2016,06,05,00,22,19.50
2016,06,05,00,23,19.50
2016,06,05,00,24,19.50
2016,06,05,00,25,19.40
2016,06,05,00,26,19.40
2016,06,05,00,27,19.30
2016,06,05,00,28,19.30
2016,06,05,00,29,19.30
2016,06,05,00,30,19.20
2016,06,05,00,31,19.20
2016,06,05,00,32,19.20
2016,06,05,00,33,19.20
2016,06,05,00,34,19.20
2016,06,05,00,35,19.20
2016,06,05,00,36,19.20
2016,06,05,00,37,19.30
2016,06,05,00,38,19.30
2016,06,05,00,39,19.30
2016,06,05,00,40,19.40
2016,06,05,00,41,19.40
2016,06,05,00,42,19.50
2016,06,05,00,43,19.50
2016,06,05,00,44,19.50
2016,06,05,00,45,19.50
2016,06,05,00,46,19.50
2016,06,05,00,47,19.60
2016,06,05,00,48,19.60
2016,06,05,00,49,19.60
2016,06,05,00,50,19.60
2016,06,05,00,51,19.60
2016,06,05,00,52,19.60
2016,06,05,00,53,19.60
2016,06,05,00,54,19.60
2016,06,05,00,55,19.60
2016,06,05,00,56,19.60
2016,06,05,00,57,19.60
2016,06,05,00,58,19.60
2016,06,05,00,59,19.60
2016,06,05,01,00,19.60
2016,06,05,01,01,19.60
2016,06,05,01,02,19.60
2016,06,05,01,03,19.60
2016,06,05,01,04,19.50
2016,06,05,01,05,19.50
2016,06,05,01,06,19.50
2016,06,05,01,07,19.40
2016,06,05,01,08,19.40
2016,06,05,01,09,19.40
2016,06,05,01,10,19.40
2016,06,05,01,11,19.40
2016,06,05,01,12,19.40
2016,06,05,01,13,19.30
2016,06,05,01,14,19.30
2016,06,05,01,15,19.30
2016,06,05,01,16,19.30
2016,06,05,01,17,19.20
2016,06,05,01,18,19.20
2016,06,05,01,19,19.10
2016,06,05,01,20,19.00
2016,06,05,01,21,19.00
2016,06,05,01,22,18.90
2016,06,05,01,23,18.80
2016,06,05,01,24,18.80
2016,06,05,01,25,18.70
2016,06,05,01,26,18.70
2016,06,05,01,27,18.70
2016,06,05,01,28,18.70
2016,06,05,01,29,18.60
2016,06,05,01,30,18.60
2016,06,05,01,31,18.60
2016,06,05,01,32,18.50
2016,06,05,01,33,18.50
2016,06,05,01,34,18.40
2016,06,05,01,35,18.40
2016,06,05,01,36,18.30
2016,06,05,01,37,18.30
2016,06,05,01,38,18.20
2016,06,05,01,39,18.20
2016,06,05,01,40,18.20
2016,06,05,01,41,18.10
2016,06,05,01,42,18.00
2016,06,05,01,43,18.00
2016,06,05,01,44,17.90
2016,06,05,01,45,17.90
2016,06,05,01,46,17.90
2016,06,05,01,47,17.80
2016,06,05,01,48,17.80
2016,06,05,01,49,17.80
2016,06,05,01,50,17.80
2016,06,05,01,51,17.70
2016,06,05,01,52,17.70
2016,06,05,01,53,17.60
2016,06,05,01,54,17.60
2016,06,05,01,55,17.60
2016,06,05,01,56,17.50
2016,06,05,01,57,17.50
2016,06,05,01,58,17.40
2016,06,05,01,59,17.40
2016,06,05,02,00,17.30
2016,06,05,02,01,17.30
2016,06,05,02,02,17.20
2016,06,05,02,03,17.20
2016,06,05,02,04,17.10
2016,06,05,02,05,17.00
2016,06,05,02,06,17.00
2016,06,05,02,07,16.90
2016,06,05,02,08,16.90
2016,06,05,02,09,16.80
2016,06,05,02,10,16.80
2016,06,05,02,11,16.80
2016,06,05,02,12,16.70
2016,06,05,02,13,16.70
2016,06,05,02,14,16.70
2016,06,05,02,15,16.70
2016,06,05,02,16,16.70
2016,06,05,02,17,16.60
2016,06,05,02,18,16.60
2016,06,05,02,19,16.60
2016,06,05,02,20,16.60
2016,06,05,02,21,16.60
2016,06,05,02,22,16.60
2016,06,05,02,23,16.60
2016,06,05,02,24,16.60
2016,06,05,02,25,16.60
2016,06,05,02,26,16.60
2016,06,05,02,27,16.50
2016,06,05,02,28,16.50
2016,06,05,02,29,16.50
2016,06,05,02,30,16.50
2016,06,05,02,31,16.40
2016,06,05,02,32,16.40
2016,06,05,02,33,16.40
2016,06,05,02,34,16.40
2016,06,05,02,35,16.30
2016,06,05,02,36,16.30
2016,06,05,02,37,16.30
2016,06,05,02,38,16.20
2016,06,05,02,39,16.20
2016,06,05,02,40,16.20
2016,06,05,02,41,16.20
2016,06,05,02,42,16.10
2016,06,05,02,43,16.10
2016,06,05,02,44,16.10
2016,06,05,02,45,16.10
2016,06,05,02,46,16.10
2016,06,05,02,47,16.00
2016,06,05,02,48,16.00
2016,06,05,02,49,16.00
2016,06,05,02,50,16.00
2016,06,05,02,51,16.00
2016,06,05,02,52,15.90
2016,06,05,02,53,15.90
2016,06,05,02,54,15.90
2016,06,05,02,55,15.80
2016,06,05,02,56,15.80
2016,06,05,02,57,15.80
2016,06,05,02,58,15.70
2016,06,05,02,59,15.70
2016,06,05,03,00,15.70
2016,06,05,03,01,15.60
2016,06,05,03,02,15.60
2016,06,05,03,03,15.60
2016,06,05,03,04,15.60
2016,06,05,03,05,15.60
2016,06,05,03,06,15.50
2016,06,05,03,07,15.50
2016,06,05,03,08,15.50
2016,06,05,03,09,15.50
2016,06,05,03,10,15.50
2016,06,05,03,11,15.50
2016,06,05,03,12,15.50
2016,06,05,03,13,15.50
2016,06,05,03,14,15.50
2016,06,05,03,15,15.40
2016,06,05,03,16,15.40
2016,06,05,03,17,15.40
2016,06,05,03,18,15.40
2016,06,05,03,19,15.30
2016,06,05,03,20,15.30
2016,06,05,03,21,15.30
2016,06,05,03,22,15.30
2016,06,05,03,23,15.30
2016,06,05,03,24,15.20
2016,06,05,03,25,15.20
2016,06,05,03,26,15.20
2016,06,05,03,27,15.20
2016,06,05,03,28,15.20
2016,06,05,03,29,15.20
2016,06,05,03,30,15.20
2016,06,05,03,31,15.20
2016,06,05,03,32,15.20
2016,06,05,03,33,15.20
2016,06,05,03,34,15.20
2016,06,05,03,35,15.20
2016,06,05,03,36,15.10
2016,06,05,03,37,15.10
2016,06,05,03,38,15.10
2016,06,05,03,39,15.10
2016,06,05,03,40,15.10
2016,06,05,03,41,15.10
2016,06,05,03,42,15.10
2016,06,05,03,43,15.10
2016,06,05,03,44,15.00
2016,06,05,03,45,15.00
2016,06,05,03,46,15.00
2016,06,05,03,47,14.90
2016,06,05,03,48,14.90
2016,06,05,03,49,14.80
2016,06,05,03,50,14.80
2016,06,05,03,51,14.80
2016,06,05,03,52,14.80
2016,06,05,03,53,14.80
2016,06,05,03,54,14.70
2016,06,05,03,55,14.70
2016,06,05,03,56,14.70
2016,06,05,03,57,14.70
2016,06,05,03,58,14.70
2016,06,05,03,59,14.70
2016,06,05,04,00,14.70
2016,06,05,04,01,14.60
2016,06,05,04,02,14.60
2016,06,05,04,03,14.60
2016,06,05,04,04,14.60
2016,06,05,04,05,14.60
2016,06,05,04,06,14.50
2016,06,05,04,07,14.50
2016,06,05,04,08,14.50
2016,06,05,04,09,14.40
2016,06,05,04,10,14.40
2016,06,05,04,11,14.40
2016,06,05,04,12,14.40
2016,06,05,04,13,14.40
2016,06,05,04,14,14.40
2016,06,05,04,15,14.30
2016,06,05,04,16,14.30
2016,06,05,04,17,14.30
2016,06,05,04,18,14.30
2016,06,05,04,19,14.30
2016,06,05,04,20,14.30
2016,06,05,04,21,14.30
2016,06,05,04,22,14.30
2016,06,05,04,23,14.30
2016,06,05,04,24,14.30
2016,06,05,04,25,14.20
2016,06,05,04,26,14.20
2016,06,05,04,27,14.20
2016,06,05,04,28,14.20
2016,06,05,04,29,14.20
2016,06,05,04,30,14.20
2016,06,05,04,31,14.20
2016,06,05,04,32,14.20
2016,06,05,04,33,14.20
2016,06,05,04,34,14.20
2016,06,05,04,35,14.20
2016,06,05,04,36,14.20
2016,06,05,04,37,14.20
2016,06,05,04,38,14.20
2016,06,05,04,39,14.10
2016,06,05,04,40,14.10
2016,06,05,04,41,14.10
2016,06,05,04,42,14.10
2016,06,05,04,43,14.10
2016,06,05,04,44,14.10
2016,06,05,04,45,14.00
2016,06,05,04,46,14.00
2016,06,05,04,47,14.00
2016,06,05,04,48,14.00
2016,06,05,04,49,14.00
2016,06,05,04,50,13.90
2016,06,05,04,51,13.90
2016,06,05,04,52,13.90
2016,06,05,04,53,13.90
2016,06,05,04,54,13.90
2016,06,05,04,55,13.90
2016,06,05,04,56,13.80
2016,06,05,04,57,13.80
2016,06,05,04,58,13.80
2016,06,05,04,59,13.70
2016,06,05,05,00,13.70
2016,06,05,05,01,13.70
2016,06,05,05,02,13.70
2016,06,05,05,03,13.70
2016,06,05,05,04,13.60
2016,06,05,05,05,13.60
2016,06,05,05,06,13.60
2016,06,05,05,07,13.60
2016,06,05,05,08,13.50
2016,06,05,05,09,13.50
2016,06,05,05,10,13.50
2016,06,05,05,11,13.40
2016,06,05,05,12,13.40
2016,06,05,05,13,13.40
2016,06,05,05,14,13.40
2016,06,05,05,15,13.40
2016,06,05,05,16,13.40
2016,06,05,05,17,13.40
2016,06,05,05,18,13.30
2016,06,05,05,19,13.30
2016,06,05,05,20,13.30
2016,06,05,05,21,13.30
2016,06,05,05,22,13.30
2016,06,05,05,23,13.30
2016,06,05,05,24,13.20
2016,06,05,05,25,13.20
2016,06,05,05,26,13.20
2016,06,05,05,27,13.20
2016,06,05,05,28,13.20
2016,06,05,05,29,13.20
2016,06,05,05,30,13.20
2016,06,05,05,31,13.20
2016,06,05,05,32,13.10
2016,06,05,05,33,13.10
2016,06,05,05,34,13.10
2016,06,05,05,35,13.10
2016,06,05,05,36,13.10
2016,06,05,05,37,13.10
2016,06,05,05,38,13.10
2016,06,05,05,39,13.10
2016,06,05,05,40,13.10
2016,06,05,05,41,13.00
2016,06,05,05,42,13.00
2016,06,05,05,43,13.00
2016,06,05,05,44,13.00
2016,06,05,05,45,13.10
2016,06,05,05,46,13.10
2016,06,05,05,47,13.10
2016,06,05,05,48,13.10
2016,06,05,05,49,13.10
2016,06,05,05,50,13.10
2016,06,05,05,51,13.10
2016,06,05,05,52,13.10
2016,06,05,05,53,13.20
2016,06,05,05,54,13.20
2016,06,05,05,55,13.20
2016,06,05,05,56,13.20
2016,06,05,05,57,13.20
2016,06,05,05,58,13.20
2016,06,05,05,59,13.30
2016,06,05,06,00,13.30
2016,06,05,06,01,13.30
2016,06,05,06,02,13.40
2016,06,05,06,03,13.40
2016,06,05,06,04,13.40
2016,06,05,06,05,13.50
2016,06,05,06,06,13.50
2016,06,05,06,07,13.50
2016,06,05,06,08,13.50
2016,06,05,06,09,13.60
2016,06,05,06,10,13.60
2016,06,05,06,11,13.60
2016,06,05,06,12,13.70
2016,06,05,06,13,13.70
2016,06,05,06,14,13.70
2016,06,05,06,15,13.80
2016,06,05,06,16,13.80
2016,06,05,06,17,13.80
2016,06,05,06,18,13.90
2016,06,05,06,19,13.90
2016,06,05,06,20,14.00
2016,06,05,06,21,14.00
2016,06,05,06,22,14.10
2016,06,05,06,23,14.10
2016,06,05,06,24,14.20
2016,06,05,06,25,14.20
2016,06,05,06,26,14.30
2016,06,05,06,27,14.30
2016,06,05,06,28,14.40
2016,06,05,06,29,14.40
2016,06,05,06,30,14.50
2016,06,05,06,31,14.50
2016,06,05,06,32,14.60
2016,06,05,06,33,14.70
2016,06,05,06,34,14.70
2016,06,05,06,35,14.80
2016,06,05,06,36,14.80
2016,06,05,06,37,14.90
2016,06,05,06,38,15.00
2016,06,05,06,39,15.10
2016,06,05,06,40,15.20
2016,06,05,06,41,15.30
2016,06,05,06,42,15.40
2016,06,05,06,43,15.50
2016,06,05,06,44,15.60
2016,06,05,06,45,15.70
2016,06,05,06,46,15.80
2016,06,05,06,47,15.90
2016,06,05,06,48,16.00
2016,06,05,06,49,16.00
2016,06,05,06,50,16.10
2016,06,05,06,51,16.10
2016,06,05,06,52,16.20
2016,06,05,06,53,16.20
2016,06,05,06,54,16.30
2016,06,05,06,55,16.30
2016,06,05,06,56,16.40
2016,06,05,06,57,16.50
2016,06,05,06,58,16.50
2016,06,05,06,59,16.60
2016,06,05,07,00,16.70
2016,06,05,07,01,16.70
2016,06,05,07,02,16.80
2016,06,05,07,03,16.90
2016,06,05,07,04,17.00
2016,06,05,07,05,17.10
2016,06,05,07,06,17.20
2016,06,05,07,07,17.30
2016,06,05,07,08,17.40
2016,06,05,07,09,17.50
2016,06,05,07,10,17.60
2016,06,05,07,11,17.70
2016,06,05,07,12,17.80
2016,06,05,07,13,17.90
2016,06,05,07,14,17.90
2016,06,05,07,15,18.00
2016,06,05,07,16,18.00
2016,06,05,07,17,18.00
2016,06,05,07,18,18.10
2016,06,05,07,19,18.10
2016,06,05,07,20,18.10
2016,06,05,07,21,18.10
2016,06,05,07,22,18.10
2016,06,05,07,23,18.10
2016,06,05,07,24,18.10
2016,06,05,07,25,18.10
2016,06,05,07,26,18.10
2016,06,05,07,27,18.10
2016,06,05,07,28,18.10
2016,06,05,07,29,18.10
2016,06,05,07,30,18.10
2016,06,05,07,31,18.10
2016,06,05,07,32,18.10
2016,06,05,07,33,18.10
2016,06,05,07,34,18.10
2016,06,05,07,35,18.10
2016,06,05,07,36,18.10
2016,06,05,07,37,18.10
2016,06,05,07,38,18.20
2016,06,05,07,39,18.20
2016,06,05,07,40,18.20
2016,06,05,07,41,18.20
2016,06,05,07,42,18.30
2016,06,05,07,43,18.30
2016,06,05,07,44,18.40
2016,06,05,07,45,18.40
2016,06,05,07,46,18.50
2016,06,05,07,47,18.50
2016,06,05,07,48,18.60
2016,06,05,07,49,18.60
2016,06,05,07,50,18.70
2016,06,05,07,51,18.80
2016,06,05,07,52,18.80
2016,06,05,07,53,18.90
2016,06,05,07,54,18.90
2016,06,05,07,55,19.00
2016,06,05,07,56,19.00
2016,06,05,07,57,19.10
2016,06,05,07,58,19.10
2016,06,05,07,59,19.10
2016,06,05,08,00,19.20
2016,06,05,08,01,19.20
2016,06,05,08,02,19.30
2016,06,05,08,03,19.30
2016,06,05,08,04,19.30
2016,06,05,08,05,19.30
2016,06,05,08,06,19.30
2016,06,05,08,07,19.40
2016,06,05,08,08,19.40
2016,06,05,08,09,19.40
2016,06,05,08,10,19.50
2016,06,05,08,11,19.60
2016,06,05,08,12,19.70
2016,06,05,08,13,19.70
2016,06,05,08,14,19.80
2016,06,05,08,15,19.80
2016,06,05,08,16,19.90
2016,06,05,08,17,20.00
2016,06,05,08,18,20.00
2016,06,05,08,19,20.10
2016,06,05,08,20,20.10
2016,06,05,08,21,20.20
2016,06,05,08,22,20.30
2016,06,05,08,23,20.30
2016,06,05,08,24,20.40
2016,06,05,08,25,20.50
2016,06,05,08,26,20.60
2016,06,05,08,27,20.70
2016,06,05,08,28,20.80
2016,06,05,08,29,20.90
2016,06,05,08,30,21.00
2016,06,05,08,31,21.00
2016,06,05,08,32,21.10
2016,06,05,08,33,21.10
2016,06,05,08,34,21.20
2016,06,05,08,35,21.20
2016,06,05,08,36,21.20
2016,06,05,08,37,21.20
2016,06,05,08,38,21.20
2016,06,05,08,39,21.20
2016,06,05,08,40,21.30
2016,06,05,08,41,21.30
2016,06,05,08,42,21.30
2016,06,05,08,43,21.30
2016,06,05,08,44,21.30
2016,06,05,08,45,21.40
2016,06,05,08,46,21.40
2016,06,05,08,47,21.40
2016,06,05,08,48,21.40
2016,06,05,08,49,21.40
2016,06,05,08,50,21.40
2016,06,05,08,51,21.40
2016,06,05,08,52,21.40
2016,06,05,08,53,21.40
2016,06,05,08,54,21.40
2016,06,05,08,55,21.40
2016,06,05,08,56,21.40
2016,06,05,08,57,21.40
2016,06,05,08,58,21.40
2016,06,05,08,59,21.40
2016,06,05,09,00,21.40
2016,06,05,09,01,21.40
2016,06,05,09,02,21.40
2016,06,05,09,03,21.40
2016,06,05,09,04,21.40
2016,06,05,09,05,21.40
2016,06,05,09,06,21.40
2016,06,05,09,07,21.50
2016,06,05,09,08,21.50
2016,06,05,09,09,21.50
2016,06,05,09,10,21.50
2016,06,05,09,11,21.50
2016,06,05,09,12,21.50
2016,06,05,09,13,21.50
2016,06,05,09,14,21.50
2016,06,05,09,15,21.50
2016,06,05,09,16,21.50
2016,06,05,09,17,21.50
2016,06,05,09,18,21.50
2016,06,05,09,19,21.50
2016,06,05,09,20,21.50
2016,06,05,09,21,21.50
2016,06,05,09,22,21.50
2016,06,05,09,23,21.50
2016,06,05,09,24,21.50
2016,06,05,09,25,21.60
2016,06,05,09,26,21.60
2016,06,05,09,27,21.60
2016,06,05,09,28,21.60
2016,06,05,09,29,21.70
2016,06,05,09,30,21.70
2016,06,05,09,31,21.80
2016,06,05,09,32,21.80
2016,06,05,09,33,21.80
2016,06,05,09,34,21.80
2016,06,05,09,35,21.90
2016,06,05,09,36,21.90
2016,06,05,09,37,21.90
2016,06,05,09,38,22.00
2016,06,05,09,39,22.10
2016,06,05,09,40,22.10
2016,06,05,09,41,22.20
2016,06,05,09,42,22.20
2016,06,05,09,43,22.20
2016,06,05,09,44,22.30
2016,06,05,09,45,22.30
2016,06,05,09,46,22.30
2016,06,05,09,47,22.30
2016,06,05,09,48,22.30
2016,06,05,09,49,22.30
2016,06,05,09,50,22.30
2016,06,05,09,51,22.30
2016,06,05,09,52,22.30
2016,06,05,09,53,22.40
2016,06,05,09,54,22.40
2016,06,05,09,55,22.40
2016,06,05,09,56,22.40
2016,06,05,09,57,22.40
2016,06,05,09,58,22.30
2016,06,05,09,59,22.30
2016,06,05,10,00,22.30
2016,06,05,10,01,22.30
2016,06,05,10,02,22.30
2016,06,05,10,03,22.40
2016,06,05,10,04,22.40
2016,06,05,10,05,22.40
2016,06,05,10,06,22.40
2016,06,05,10,07,22.40
2016,06,05,10,08,22.40
2016,06,05,10,09,22.50
2016,06,05,10,10,22.60
2016,06,05,10,11,22.60
2016,06,05,10,12,22.60
2016,06,05,10,13,22.60
2016,06,05,10,14,22.70
2016,06,05,10,15,22.70
2016,06,05,10,16,22.70
2016,06,05,10,17,22.80
2016,06,05,10,18,22.80
2016,06,05,10,19,22.80
2016,06,05,10,20,22.80
2016,06,05,10,21,22.80
2016,06,05,10,22,22.80
2016,06,05,10,23,22.90
2016,06,05,10,24,22.90
2016,06,05,10,25,23.00
2016,06,05,10,26,23.10
2016,06,05,10,27,23.20
2016,06,05,10,28,23.30
2016,06,05,10,29,23.40
2016,06,05,10,30,23.40
2016,06,05,10,31,23.40
2016,06,05,10,32,23.40
2016,06,05,10,33,23.50
2016,06,05,10,34,23.60
2016,06,05,10,35,23.60
2016,06,05,10,36,23.60
2016,06,05,10,37,23.60
2016,06,05,10,38,23.60
2016,06,05,10,39,23.60
2016,06,05,10,40,23.70
2016,06,05,10,41,23.70
2016,06,05,10,42,23.70
2016,06,05,10,43,23.70
2016,06,05,10,44,23.70
2016,06,05,10,45,23.70
2016,06,05,10,46,23.60
2016,06,05,10,47,23.70
2016,06,05,10,48,23.70
2016,06,05,10,49,23.70
2016,06,05,10,50,23.70
2016,06,05,10,51,23.60
2016,06,05,10,52,23.60
2016,06,05,10,53,23.60
2016,06,05,10,54,23.60
2016,06,05,10,55,23.60
2016,06,05,10,56,23.60
2016,06,05,10,57,23.60
2016,06,05,10,58,23.60
2016,06,05,10,59,23.60
2016,06,05,11,00,23.70
2016,06,05,11,01,23.70
2016,06,05,11,02,23.70
2016,06,05,11,03,23.70
2016,06,05,11,04,23.70
2016,06,05,11,05,23.70
2016,06,05,11,06,23.70
2016,06,05,11,07,23.70
2016,06,05,11,08,23.70
2016,06,05,11,09,23.70
2016,06,05,11,10,23.70
2016,06,05,11,11,23.70
2016,06,05,11,12,23.80
2016,06,05,11,13,23.80
2016,06,05,11,14,23.80
2016,06,05,11,15,23.80
2016,06,05,11,16,23.90
2016,06,05,11,17,23.80
2016,06,05,11,18,23.80
2016,06,05,11,19,23.90
2016,06,05,11,20,23.90
2016,06,05,11,21,24.00
2016,06,05,11,22,24.00
2016,06,05,11,23,24.00
2016,06,05,11,24,24.10
2016,06,05,11,25,24.10
2016,06,05,11,26,24.10
2016,06,05,11,27,24.10
2016,06,05,11,28,24.10
2016,06,05,11,29,24.10
2016,06,05,11,30,24.10
2016,06,05,11,31,24.10
2016,06,05,11,32,24.10
2016,06,05,11,33,24.10
2016,06,05,11,34,24.10
2016,06,05,11,35,24.20
2016,06,05,11,36,24.20
2016,06,05,11,37,24.20
2016,06,05,11,38,24.30
2016,06,05,11,39,24.30
2016,06,05,11,40,24.30
2016,06,05,11,41,24.40
2016,06,05,11,42,24.40
2016,06,05,11,43,24.40
2016,06,05,11,44,24.40
2016,06,05,11,45,24.30
2016,06,05,11,46,24.30
2016,06,05,11,47,24.30
2016,06,05,11,48,24.40
2016,06,05,11,49,24.40
2016,06,05,11,50,24.50
2016,06,05,11,51,24.50
2016,06,05,11,52,24.60
2016,06,05,11,53,24.60
2016,06,05,11,54,24.60
2016,06,05,11,55,24.60
2016,06,05,11,56,24.70
2016,06,05,11,57,24.70
2016,06,05,11,58,24.80
2016,06,05,11,59,24.80
2016,06,05,12,00,24.80
2016,06,05,12,01,24.80
2016,06,05,12,02,24.90
2016,06,05,12,03,24.90
2016,06,05,12,04,24.90
2016,06,05,12,05,24.90
2016,06,05,12,06,24.90
2016,06,05,12,07,25.00
2016,06,05,12,08,25.00
2016,06,05,12,09,25.00
2016,06,05,12,10,24.90
2016,06,05,12,11,25.00
2016,06,05,12,12,25.00
2016,06,05,12,13,25.10
2016,06,05,12,14,25.10
2016,06,05,12,15,25.20
2016,06,05,12,16,25.30
2016,06,05,12,17,25.40
2016,06,05,12,18,25.50
2016,06,05,12,19,25.50
2016,06,05,12,20,25.70
2016,06,05,12,21,25.80
2016,06,05,12,22,25.80
2016,06,05,12,23,25.80
2016,06,05,12,24,25.90
2016,06,05,12,25,25.90
2016,06,05,12,26,25.90
2016,06,05,12,27,25.90
2016,06,05,12,28,25.90
2016,06,05,12,29,25.90
2016,06,05,12,30,26.00
2016,06,05,12,31,26.00
2016,06,05,12,32,26.00
2016,06,05,12,33,26.10
2016,06,05,12,34,26.10
2016,06,05,12,35,26.10
2016,06,05,12,36,26.10
2016,06,05,12,37,26.10
2016,06,05,12,38,26.10
2016,06,05,12,39,26.20
2016,06,05,12,40,26.20
2016,06,05,12,41,26.20
2016,06,05,12,42,26.30
2016,06,05,12,43,26.30
2016,06,05,12,44,26.30
2016,06,05,12,45,26.40
2016,06,05,12,46,26.40
2016,06,05,12,47,26.50
2016,06,05,12,48,26.60
2016,06,05,12,49,26.60
2016,06,05,12,50,26.70
2016,06,05,12,51,26.60
2016,06,05,12,52,26.60
2016,06,05,12,53,26.60
2016,06,05,12,54,26.60
2016,06,05,12,55,26.60
2016,06,05,12,56,26.50
2016,06,05,12,57,26.50
2016,06,05,12,58,26.50
2016,06,05,12,59,26.50
2016,06,05,13,00,26.60
2016,06,05,13,01,26.60
2016,06,05,13,02,26.60
2016,06,05,13,03,26.70
2016,06,05,13,04,26.70
2016,06,05,13,05,26.70
2016,06,05,13,06,26.60
2016,06,05,13,07,26.60
2016,06,05,13,08,26.60
2016,06,05,13,09,26.50
2016,06,05,13,10,26.50
2016,06,05,13,11,26.40
2016,06,05,13,12,26.30
2016,06,05,13,13,26.30
2016,06,05,13,14,26.30
2016,06,05,13,15,26.30
2016,06,05,13,16,26.40
2016,06,05,13,17,26.40
2016,06,05,13,18,26.50
2016,06,05,13,19,26.50
2016,06,05,13,20,26.50
2016,06,05,13,21,26.40
2016,06,05,13,22,26.40
2016,06,05,13,23,26.50
2016,06,05,13,24,26.50
2016,06,05,13,25,26.60
2016,06,05,13,26,26.60
2016,06,05,13,27,26.70
2016,06,05,13,28,26.70
2016,06,05,13,29,26.80
2016,06,05,13,30,26.80
2016,06,05,13,31,26.90
2016,06,05,13,32,27.00
2016,06,05,13,33,27.10
2016,06,05,13,34,27.10
2016,06,05,13,35,27.10
2016,06,05,13,36,27.00
2016,06,05,13,37,27.00
2016,06,05,13,38,26.90
2016,06,05,13,39,26.90
2016,06,05,13,40,26.90
2016,06,05,13,41,26.90
2016,06,05,13,42,26.90
2016,06,05,13,43,27.00
2016,06,05,13,44,27.00
2016,06,05,13,45,27.00
2016,06,05,13,46,27.00
2016,06,05,13,47,27.00
2016,06,05,13,48,27.10
2016,06,05,13,49,27.10
2016,06,05,13,50,27.10
2016,06,05,13,51,27.10
2016,06,05,13,52,27.10
2016,06,05,13,53,27.10
2016,06,05,13,54,27.10
2016,06,05,13,55,27.00
2016,06,05,13,56,27.00
2016,06,05,13,57,27.10
2016,06,05,13,58,27.20
2016,06,05,13,59,27.30
2016,06,05,14,00,27.50
2016,06,05,14,01,27.50
2016,06,05,14,02,27.50
2016,06,05,14,03,27.50
2016,06,05,14,04,27.50
2016,06,05,14,05,27.60
2016,06,05,14,06,27.70
2016,06,05,14,07,27.70
2016,06,05,14,08,27.80
2016,06,05,14,09,27.80
2016,06,05,14,10,27.90
2016,06,05,14,11,27.90
2016,06,05,14,12,27.90
2016,06,05,14,13,27.80
2016,06,05,14,14,27.80
2016,06,05,14,15,27.80
2016,06,05,14,16,27.80
2016,06,05,14,17,27.70
2016,06,05,14,18,27.80
2016,06,05,14,19,27.80
2016,06,05,14,20,27.80
2016,06,05,14,21,27.80
2016,06,05,14,22,27.80
2016,06,05,14,23,27.90
2016,06,05,14,24,28.00
2016,06,05,14,25,28.10
2016,06,05,14,26,28.10
2016,06,05,14,27,28.20
2016,06,05,14,28,28.20
2016,06,05,14,29,28.30
2016,06,05,14,30,28.20
2016,06,05,14,31,28.30
2016,06,05,14,32,28.30
2016,06,05,14,33,28.30
2016,06,05,14,34,28.30
2016,06,05,14,35,28.40
2016,06,05,14,36,28.40
2016,06,05,14,37,28.40
2016,06,05,14,38,28.50
2016,06,05,14,39,28.50
2016,06,05,14,40,28.60
2016,06,05,14,41,28.60
2016,06,05,14,42,28.60
2016,06,05,14,43,28.50
2016,06,05,14,44,28.50
2016,06,05,14,45,28.50
2016,06,05,14,46,28.50
2016,06,05,14,47,28.50
2016,06,05,14,48,28.60
2016,06,05,14,49,28.70
2016,06,05,14,50,28.70
2016,06,05,14,51,28.80
2016,06,05,14,52,28.80
2016,06,05,14,53,28.80
2016,06,05,14,54,28.70
2016,06,05,14,55,28.70
2016,06,05,14,56,28.70
2016,06,05,14,57,28.70
2016,06,05,14,58,28.70
2016,06,05,14,59,28.70
2016,06,05,15,00,28.70
2016,06,05,15,01,28.70
2016,06,05,15,02,28.80
2016,06,05,15,03,28.80
2016,06,05,15,04,28.80
2016,06,05,15,05,28.90
2016,06,05,15,06,28.90
2016,06,05,15,07,28.90
2016,06,05,15,08,29.00
2016,06,05,15,09,29.00
2016,06,05,15,10,28.90
2016,06,05,15,11,28.90
2016,06,05,15,12,28.80
2016,06,05,15,13,28.70
2016,06,05,15,14,28.60
2016,06,05,15,15,28.50
2016,06,05,15,16,28.50
2016,06,05,15,17,28.50
2016,06,05,15,18,28.50
2016,06,05,15,19,28.40
2016,06,05,15,20,28.40
2016,06,05,15,21,28.40
2016,06,05,15,22,28.40
2016,06,05,15,23,28.40
2016,06,05,15,24,28.40
2016,06,05,15,25,28.40
2016,06,05,15,26,28.50
2016,06,05,15,27,28.50
2016,06,05,15,28,28.60
2016,06,05,15,29,28.60
2016,06,05,15,30,28.60
2016,06,05,15,31,28.70
2016,06,05,15,32,28.70
2016,06,05,15,33,28.70
2016,06,05,15,34,28.70
2016,06,05,15,35,28.70
2016,06,05,15,36,28.70
2016,06,05,15,37,28.70
2016,06,05,15,38,28.70
2016,06,05,15,39,28.70
2016,06,05,15,40,28.70
2016,06,05,15,41,28.70
2016,06,05,15,42,28.70
2016,06,05,15,43,28.60
2016,06,05,15,44,28.60
2016,06,05,15,45,28.60
2016,06,05,15,46,28.60
2016,06,05,15,47,28.60
2016,06,05,15,48,28.60
2016,06,05,15,49,28.70
2016,06,05,15,50,28.70
2016,06,05,15,51,28.80
2016,06,05,15,52,28.90
2016,06,05,15,53,28.90
2016,06,05,15,54,28.90
2016,06,05,15,55,28.90
2016,06,05,15,56,28.90
2016,06,05,15,57,29.00
2016,06,05,15,58,29.00
2016,06,05,15,59,29.10
2016,06,05,16,00,29.20
2016,06,05,16,01,29.30
2016,06,05,16,02,29.40
2016,06,05,16,03,29.50
2016,06,05,16,04,29.60
2016,06,05,16,05,29.60
2016,06,05,16,06,29.60
2016,06,05,16,07,29.60
2016,06,05,16,08,29.60
2016,06,05,16,09,29.70
2016,06,05,16,10,29.70
2016,06,05,16,11,29.70
2016,06,05,16,12,29.80
2016,06,05,16,13,29.80
2016,06,05,16,14,29.80
2016,06,05,16,15,29.80
2016,06,05,16,16,29.80
2016,06,05,16,17,29.80
2016,06,05,16,18,29.80
2016,06,05,16,19,29.80
2016,06,05,16,20,29.80
2016,06,05,16,21,29.80
2016,06,05,16,22,29.80
2016,06,05,16,23,29.90
2016,06,05,16,24,29.90
2016,06,05,16,25,29.90
2016,06,05,16,26,29.90
2016,06,05,16,27,29.90
2016,06,05,16,28,29.90
2016,06,05,16,29,29.90
2016,06,05,16,30,29.90
2016,06,05,16,31,29.90
2016,06,05,16,32,29.90
2016,06,05,16,33,29.90
2016,06,05,16,34,29.90
2016,06,05,16,35,29.90
2016,06,05,16,36,29.90
2016,06,05,16,37,29.90
2016,06,05,16,38,29.90
2016,06,05,16,39,29.90
2016,06,05,16,40,30.00
2016,06,05,16,41,30.00
2016,06,05,16,42,30.10
2016,06,05,16,43,30.10
2016,06,05,16,44,30.10
2016,06,05,16,45,30.10
2016,06,05,16,46,30.10
2016,06,05,16,47,30.10
2016,06,05,16,48,30.10
2016,06,05,16,49,30.10
2016,06,05,16,50,30.10
2016,06,05,16,51,30.10
2016,06,05,16,52,30.10
2016,06,05,16,53,30.00
2016,06,05,16,54,30.00
2016,06,05,16,55,30.00
2016,06,05,16,56,30.10
2016,06,05,16,57,30.10
2016,06,05,16,58,30.20
2016,06,05,16,59,30.20
2016,06,05,17,00,30.30
2016,06,05,17,01,30.30
2016,06,05,17,02,30.30
2016,06,05,17,03,30.30
2016,06,05,17,04,30.30
2016,06,05,17,05,30.30
2016,06,05,17,06,30.30
2016,06,05,17,07,30.30
2016,06,05,17,08,30.30
2016,06,05,17,09,30.30
2016,06,05,17,10,30.20
2016,06,05,17,11,30.20
2016,06,05,17,12,30.20
2016,06,05,17,13,30.20
2016,06,05,17,14,30.20
2016,06,05,17,15,30.20
2016,06,05,17,16,30.20
2016,06,05,17,17,30.30
2016,06,05,17,18,30.30
2016,06,05,17,19,30.30